Weather History for YBHM - May, 2013

Change the Weather History Date:

Friday, May 24, 2013

  Actual Average Record
Temperature  
Mean Temperature 68 °F -  
Max Temperature 71 °F - - ()
Min Temperature 65 °F - - ()
Cooling Degree Days 3    
Growing Degree Days 18 (Base 50)    
Moisture  
Dew Point 54 °F    
Average Humidity 59    
Maximum Humidity 83    
Minimum Humidity 36    
Precipitation  
Precipitation 0.00 in - - ()
Sea Level Pressure  
Sea Level Pressure 29.96 in    
Wind  
Wind Speed 11 mph ()    
Max Wind Speed 22 mph    
Max Gust Speed -    
T = Trace of Precipitation, MM = Missing Value Source: Averaged Metar Reports

Daily Weather History Graph

Daily Weather History Graph

Search for Another Location

Airport or City:

Trip Planner

Search our weather history database for the weather conditions in past years. The results will help you decide how hot, cold, wet, or windy it might be!

Date:

Astronomy

May. 24, 2013 Rise Set
Actual Time 6:29 AM AEST 5:32 PM AEST
Civil Twilight 6:05 AM AEST 5:56 PM AEST
Nautical Twilight 5:38 AM AEST 6:23 PM AEST
Astronomical Twilight 5:12 AM AEST 6:49 PM AEST
Moon 4:43 PM AEST (5/24) 5:06 AM AEST (5/24)
Length of Visible Light 11h 50m
Length of Day
11h 02m
Waxing Gibbous, 98% of the Moon is Illuminated
May 24
Waxing Gibbous
May 25
Full
Jun 1
Last Quarter
Jun 9
New
Jun 17
First Quarter

Hourly Weather History & Observations

Time (AEST) Temp. Dew Point Humidity Pressure Visibility Wind Dir Wind Speed Gust Speed Precip Events Conditions
12:00 AM 70 °F 61 °F 67% 29.91 in - WSW 9.2 mph - -  
12:00 AM 69.8 °F 60.8 °F 73% 29.92 in - WSW 9.2 mph - N/A   Unknown
12:30 AM 69.8 °F 62.6 °F 78% 29.89 in - WSW 8.1 mph - N/A   Unknown
1:00 AM 69.8 °F 62.6 °F 78% 29.89 in - WSW 8.1 mph - N/A   Unknown
1:30 AM 69.8 °F 60.8 °F 73% 29.89 in - WSW 8.1 mph - N/A   Unknown
2:00 AM 69.8 °F 60.8 °F 73% 29.89 in - WSW 9.2 mph - N/A   Unknown
2:30 AM 68.0 °F 62.6 °F 83% 29.89 in - WSW 12.7 mph - N/A   Unknown
3:00 AM 68 °F 60 °F 70% 29.88 in - WSW 13.8 mph - -  
3:00 AM 68.0 °F 60.8 °F 78% 29.89 in - WSW 13.8 mph - N/A   Unknown
3:30 AM 68.0 °F 57.2 °F 68% 29.89 in - WSW 17.3 mph - N/A   Unknown
4:00 AM 68.0 °F 57.2 °F 68% 29.89 in - WSW 12.7 mph - N/A   Unknown
4:30 AM 68.0 °F 60.8 °F 78% 29.89 in - WSW 12.7 mph - N/A   Unknown
5:00 AM 66.2 °F 57.2 °F 73% 29.92 in - SW 8.1 mph - N/A   Unknown
5:30 AM 66.2 °F 55.4 °F 68% 29.92 in - SW 11.5 mph - N/A   Unknown
6:00 AM 66 °F 50 °F 45% 29.93 in - WSW 11.5 mph - -  
6:00 AM 66.2 °F 50.0 °F 56% 29.92 in - WSW 11.5 mph - N/A   Unknown
6:30 AM 66.2 °F 53.6 °F 64% 29.95 in - SW 10.4 mph - N/A   Unknown
7:00 AM 66.2 °F 55.4 °F 68% 29.95 in - SW 12.7 mph - N/A   Unknown
7:30 AM 66.2 °F 55.4 °F 68% 29.98 in - WSW 15.0 mph - N/A   Unknown
8:00 AM 66.2 °F 53.6 °F 64% 29.98 in - SW 13.8 mph - N/A   Unknown
8:30 AM 66.2 °F 53.6 °F 64% 30.01 in - SW 13.8 mph - N/A   Unknown
9:00 AM 66 °F 51 °F 48% 30.02 in - SW 15.0 mph - -  
9:00 AM 66.2 °F 50.0 °F 56% 30.01 in - SW 15.0 mph - N/A   Unknown
9:30 AM 68.0 °F 53.6 °F 60% 30.01 in - SSW 8.1 mph - N/A   Unknown
10:00 AM 68.0 °F 53.6 °F 60% 30.01 in - South 13.8 mph - N/A   Unknown
10:30 AM 68.0 °F 53.6 °F 60% 30.01 in - South 15.0 mph - N/A   Unknown
11:00 AM 68.0 °F 53.6 °F 60% 30.01 in - South 13.8 mph - N/A   Unknown
11:30 AM 69.8 °F 53.6 °F 56% 30.01 in - South 9.2 mph - N/A   Unknown
12:00 PM 69 °F 53 °F 47% 29.99 in - SSE 13.8 mph - -  
12:00 PM 69.8 °F 53.6 °F 56% 29.98 in - SSE 13.8 mph - N/A   Unknown
12:30 PM 69.8 °F 50.0 °F 49% 29.98 in - SSE 10.4 mph - N/A   Unknown
1:00 PM 69.8 °F 53.6 °F 56% 29.95 in - SSE 10.4 mph - N/A   Unknown
1:30 PM 69.8 °F 53.6 °F 56% 29.95 in - SSE 8.1 mph - N/A   Unknown
2:00 PM 71.6 °F 55.4 °F 57% 29.95 in - South 6.9 mph - N/A   Unknown
2:30 PM 71.6 °F 55.4 °F 57% 29.95 in - SSE 4.6 mph - N/A   Unknown
3:00 PM 70 °F 51 °F 41% 29.93 in - SSE 6.9 mph - -  
3:00 PM 69.8 °F 51.8 °F 53% 29.92 in - SSE 6.9 mph - N/A   Unknown
3:30 PM 69.8 °F 51.8 °F 53% 29.92 in - SE 10.4 mph - N/A   Unknown
4:00 PM 68.0 °F 51.8 °F 56% 29.95 in - SE 10.4 mph - N/A   Unknown
4:30 PM 69.8 °F 50.0 °F 49% 29.95 in - South 10.4 mph - N/A   Unknown
5:00 PM 69.8 °F 50.0 °F 49% 29.95 in - South 8.1 mph - N/A   Unknown
5:30 PM 68.0 °F 50.0 °F 52% 29.98 in - South 6.9 mph - N/A   Unknown
6:00 PM 68 °F 50 °F 41% 29.98 in - South 9.2 mph - -  
6:00 PM 68.0 °F 50.0 °F 52% 29.98 in - South 9.2 mph - N/A   Unknown
6:30 PM 69.8 °F 50.0 °F 49% 29.98 in - South 10.4 mph - N/A   Unknown
7:00 PM 69.8 °F 50.0 °F 49% 30.01 in - South 11.5 mph - N/A   Unknown
7:30 PM 69.8 °F 51.8 °F 53% 30.01 in - South 13.8 mph - N/A   Unknown
8:00 PM 69.8 °F 48.2 °F 46% 30.01 in - South 13.8 mph - N/A   Unknown
8:30 PM 69.8 °F 48.2 °F 46% 30.01 in - South 12.7 mph - N/A   Unknown
9:00 PM 69 °F 48 °F 36% 30.03 in - SSE 16.1 mph - -  
9:00 PM 69.8 °F 48.2 °F 46% 30.04 in - SSE 16.1 mph - N/A   Unknown
9:30 PM 69.8 °F 50.0 °F 49% 30.04 in - SSE 18.4 mph - N/A   Unknown
10:00 PM 68.0 °F 51.8 °F 56% 30.04 in - SSE 20.7 mph - N/A   Unknown
10:30 PM 68.0 °F 51.8 °F 56% 30.04 in - SSE 21.9 mph - N/A   Unknown
11:00 PM 68.0 °F 51.8 °F 56% 30.04 in - SSE 20.7 mph - N/A   Unknown
11:30 PM 68.0 °F 51.8 °F 56% 30.04 in - SSE 21.9 mph - N/A   Unknown